Flag for U.S.A. Weather past 2 weeks in Urbana, Illinois, U.S.A.

Now
79 °F

Overcast.


Feels Like: 83 °F
Forecast: 74 / 88 °F
Wind: 3 mph from Northeast

Location: University Of Illinois-Willard Airport

Current Time: Aug 22, 2014 at 8:41:49 PM

Latest Report: Aug 22, 2014 at 7:53 PM


Visibility: 10 mi

Pressure: 29.96 "Hg

Humidity: 88%

Dew point: 75 °F

Location of UrbanaLocation

Historic Weather in Urbana — Graph

°F

Urbana temperature yesterday

Maximum temperature yesterday: 87 °F (at 2:53 PM)
Minimum temperature yesterday: 70 °F (at 3:53 AM)
Average temperature yesterday: 79 °F

Past Weeks' High & Low Weather Summary

 TemperatureHumidityPressure
High87 °F (Aug 21, 2:53 PM)100% (Aug 18, 3:53 AM)30.10 "Hg (Aug 18, 3:53 AM)
Low51 °F (Aug 15, 4:53 AM)48% (Aug 14, 4:53 PM)29.76 "Hg (Aug 19, 2:53 PM)
Average71 °F83%29.95 "Hg
* Reported Aug 7 6:53 PM — Aug 22 6:53 PM, Urbana, Weather by CustomWeather, © 2014

Note: Actual official high and low records may vary slightly from our data, if they occured in-between our weather recording intervals... More about our weather records

Advertising

Urbana weather history for previous 24 hours

 ConditionsComfort  
Time TempWeatherWind HumidityBarometerVisibility
6:53 PM
Aug 22
81 °FPassing clouds.3 mph85%29.95 "Hg10 mi
5:53 PM84 °FOvercast.3 mph74%29.96 "Hg10 mi
4:53 PM83 °FScattered clouds.3 mph77%29.96 "Hg10 mi
3:53 PM83 °FPassing clouds.No wind74%29.95 "Hg10 mi
2:53 PM81 °FSunny.5 mph79%29.96 "Hg10 mi
1:53 PM82 °FLight rain. Scattered clouds.3 mph74%29.96 "Hg10 mi
12:53 PM79 °FPassing clouds.8 mph84%29.95 "Hg10 mi
11:53 AM74 °FLight rain. Partly sunny.10 mph94%29.97 "Hg10 mi
10:53 AM73 °FLight rain. Partly sunny.10 mph94%30.00 "Hg10 mi
9:53 AM73 °FLight rain. Partly sunny.8 mph97%30.00 "Hg10 mi
8:53 AM73 °FThundershowers. Scattered clouds.3 mph97%30.04 "Hg10 mi
7:53 AM75 °FSunny.8 mph88%29.98 "Hg10 mi
6:53 AM76 °FPartly cloudy.6 mph94%29.98 "Hg8 mi
5:53 AM76 °FPassing clouds.7 mph91%29.94 "Hg9 mi
4:53 AM76 °FClear.8 mph94%29.90 "Hg9 mi
3:53 AM76 °FClear.7 mph94%29.89 "Hg8 mi
2:53 AM76 °FClear.9 mph94%29.88 "Hg8 mi
1:53 AM77 °FPassing clouds.9 mph94%29.90 "Hg9 mi
12:53 AM77 °FClear.9 mph94%29.92 "Hg10 mi
11:53 PM
Aug 21
78 °FClear.10 mph90%29.95 "Hg10 mi
10:53 PM77 °FClear.8 mph94%29.94 "Hg9 mi
9:53 PM79 °FClear.9 mph90%29.94 "Hg9 mi
8:53 PM77 °FClear.6 mph94%29.93 "Hg8 mi
Weather by CustomWeather, © 2014

See weather overviewHow to use our weather pages